Regional Weather Roundup
Issued by NWS Upton, NY

Current Version | Previous Version | Text Only | Print | Product List | Glossary On
Versions: 1 2 3 4 5 6 7 8 9 10 11 12 13 14 15 16 17 18 19 20 21 22 23 24 25 26 27 28 29 30 31 32 33 34 35 36 37 38 39 40 41 42 43 44 45 46 47 48 49 50
737
ASUS41 KOKX 220908
RWROKX

REGIONAL WEATHER ROUNDUP
NATIONAL WEATHER SERVICE NEW YORK NY
500 AM EDT SAT APR 22 2017

NOTE: "FAIR" INDICATES FEW OR NO CLOUDS BELOW 12,000 FEET WITH NO
SIGNIFICANT WEATHER AND/OR OBSTRUCTIONS TO VISIBILITY.

NYZ071-072-176-178-NJZ106-104-221000-
NEW YORK CITY METRO AREA

CITY           SKY/WX    TMP DP  RH WIND       PRES   REMARKS
Central Park   CLOUDY    50  48  93 CALM      29.92S
Wall St Helipt CLOUDY    50  48  93 NE3       29.91R
Bronx Bot Gard   N/A     50  48  93 NE5       29.90R
LaGuardia APRT CLOUDY    50  48  93 NE3       29.89S FOG
Kennedy INTL   CLOUDY    50  49  96 N8        29.90R
Breezy Point     N/A     48 N/A N/A N7          N/A
Newark/Liberty CLOUDY    50  48  93 N7        29.89S
Teterboro      CLOUDY    51  49  92 N7        29.89S
$$

NYZ177-179-078>081-221000-
LONG ISLAND NEW YORK

CITY           SKY/WX    TMP DP  RH WIND       PRES   REMARKS
Jones Beach      N/A     48 N/A N/A N15         N/A
Matinecock PT    N/A     46 N/A N/A E6          N/A
Farmingdale    CLOUDY    49  48  97 NE12      29.88F FOG
MacArthur/ISP  CLOUDY    49  49 100 N10       29.88F FOG
Shirley        CLOUDY    48  48 100 N7        29.88F FOG
Mt Sinai Harb    N/A     46 N/A N/A N8          N/A
Westhampton    CLOUDY    48  47  96 N9        29.89F FOG
East Hampton   CLOUDY    47  47  97 N6        29.88F FOG
Montauk          N/A     47  46  97 N8        29.89F
$$

NYZ052-065-067-221000-
HUDSON VALLEY

CITY           SKY/WX    TMP DP  RH WIND       PRES   REMARKS
White Plains   MOCLDY    50  47  89 N8        29.89F
Larchmont Harb   N/A     48 N/A N/A N3          N/A
Croton O-T Hud   N/A     50 N/A N/A NW2         N/A
Newburgh       CLOUDY    50  50 100 E7        29.92F
Montgomery     CLOUDY    51  50  96 NE5       29.90S FOG
Poughkeepsie   CLOUDY    50  48  93 CALM      29.90F
Albany         CLOUDY    49  47  93 CALM      29.94R
$$

NJZ001-105-106-008-010-013-015-019>022-104-221000-
NEW JERSEY

CITY           SKY/WX    TMP DP  RH WIND       PRES   REMARKS
Newark/Liberty CLOUDY    50  48  93 N7        29.89S
Teterboro      CLOUDY    51  49  92 N7        29.89S
Caldwell       CLOUDY    51  49  92 NE5       29.90F
Somerville     CLOUDY    50  50 100 CALM      29.88S FOG
Linden           N/A     51  47  89 CALM      29.89F
Sussex         CLOUDY    51  51 100 CALM      29.91F
Andover          N/A     51  50  96 NW3       29.91R
Trenton        CLOUDY    52  50  93 N5        29.89S FOG
Millville      CLOUDY    54  54 100 N10       29.86F FOG
Atlantic City  LGT RAIN  53  50  89 NE10      29.84F FOG
Wrightstown    CLOUDY    51  50  95 N9        29.86R FOG
Toms River     CLOUDY    51  50  96 N6        29.90R FOG
Belmar         CLOUDY    50  47  89 N8        29.90R FOG
$$

PAZ047>061-062-071-221000-
EASTERN PENNSYLVANIA

CITY           SKY/WX    TMP DP  RH WIND       PRES   REMARKS
Philadelphia   CLOUDY    56  52  86 NE7       29.88F FOG
Allentown      CLOUDY    54  47  77 N8        29.91R
Scranton       CLOUDY    52  38  58 NW6       29.92F
$$

CTZ002-004>006-009-010-012-RIZ004-006-007-MAZ004-011-015-221000-
SOUTHERN NEW ENGLAND
 IN CT

CITY           SKY/WX    TMP DP  RH WIND       PRES   REMARKS
Bradley INTL   CLOUDY    45  43  93 N9        29.94S
Hartford       CLOUDY    45  44  97 N8        29.93S FOG
Danbury        CLOUDY    48  47  96 NE6       29.91F
Wtrbury/Oxford CLOUDY    45  41  87 NE8       29.92F
Bridgeport     CLOUDY    51  47  86 NE8       29.89F
Meriden        CLOUDY    47  44  90 N8        29.92F
New Haven      CLOUDY    47  45  93 N13       29.90F
Chester        CLOUDY    46  46 100 N8G14     29.90S
Groton         CLOUDY    47  45  93 N13       29.89F
Wilimantic     CLOUDY    47  44  90 N7        29.93S

 IN RI

CITY           SKY/WX    TMP DP  RH WIND       PRES   REMARKS
Providence     CLOUDY    45  45 100 N14       29.93S
Block Island   NOT AVBL
Westerly       CLOUDY    48  46  93 N7        29.91S
 IN MA

CITY           SKY/WX    TMP DP  RH WIND       PRES   REMARKS
Boston         DRIZZLE   43  43 100 NE12      29.95F FOG
Worcester      FOG       39  37  92 NE10G16   29.92F VSB 1/2 WCI  32
Westfield      CLOUDY    44  44 100 N8        29.93F
Provincetown   LGT RAIN  44  43  96 NE15      29.93F FOG
Nantucket      FOG       47  46  97 E7        29.86F VSB 1
$$

ANZ330-335-338-340-345-350-353-355-221000-
COASTAL MARINE OBSERVATIONS


STATION/POSITION TIME  SKY/WX   TEMP    WIND        PRES    VSBY  WAVE
                                AIR SEA DIR/SP/G                  HT/PER
                 (UTC)          (F)     (DEG/KT/KT) (MB)    (MI)  (FT/S)
NY HARB ENTRANCE 0750            50 50  360/ 12/ 14 1011.8          4/11
20 S FIRE ISLAND 0850            47 47   30/ 12/ 14 1010.6          5/12
GREAT SOUTH BAY  0830            49 56   20/ 12/ 14   N/A
23 SSW MONTAUK P 0750            45 45              1011.7          6/ 8
15 E BARNEGAT LI 0830               50                N/A           5/11
HUDSON CANYON    0750            47 47  360/ 10/ 12 1010.8          5/12
KINGS POINT      0848            48 46   60/  2/  5 1012.1
EXECUTION ROCKS  NOT AVBL
CENTRAL LI SOUND NOT AVBL
EASTERN LI SOUND NOT AVBL
ROBBINS REEF     0848            50     360/ 10/ 11 1012.5
$$


>>>>>>>>>>>>>>>>>>>>>>>>>>>> KEY <<<<<<<<<<<<<<<<<<<<<<<<<<<
>                                                          <
>     SKY/WX - Sky Condition/Present Weather               <
>     TMP    - Temperature in Fahrenheit                   <
>     DP     - Dew Point in Fahrenheit                     <
>     RH     - Relative Humidity in Percent                <
>     WIND   - Direction (from) and Speed in MPH           <
>     PRES   - Mean Sea Level Pressure (inches of Hg)      <
>     WCI    - Wind Chill Index                            <
>     VSB    - VISIBILITY IN MILES                         <
>     HX     - HEAT INDEX                                  <
>     TC     - TEMPERATURE IN CELSIUS                      <
>     VRB    - VARIABLE WIND DIRECTION                     <
>                                                          <
>>>>>>>>>>>>>>>>>>>>>>>>>>>> KEY <<<<<<<<<<<<<<<<<<<<<<<<<<<




USA.gov is the U.S. government's official web portal to all federal, state and local government web resources and services.